Location: Vancouver
(49.2500°N, 123.1330°W)
Time: 23:33:23
(UTC-07:00)

ISS - All Passes

Search period start: 20 April 2015 00:00
Search period end: 30 April 2015 00:00
Orbit: 395 x 403 km, 51.6° (Epoch: 20 April)

Date Brightness Start Highest point End Pass type
(mag) Time Alt. Az. Time Alt. Az. Time Alt. Az.
20 Apr - 14:49:00 10° SSW 14:51:42 25° SE 14:54:27 10° E daylight
20 Apr - 16:24:33 10° WSW 16:27:49 84° NNW 16:31:07 10° ENE daylight
20 Apr - 18:01:09 10° WNW 18:04:22 53° N 18:07:36 10° E daylight
20 Apr - 19:37:37 10° WNW 19:40:53 80° SSW 19:44:09 10° ESE daylight
20 Apr - 21:14:31 10° W 21:16:53 18° SW 21:19:12 10° S visible
21 Apr - 13:55:58 10° S 13:57:53 15° SE 13:59:52 10° E daylight
21 Apr - 15:30:34 10° WSW 15:33:48 68° SSE 15:37:04 10° ENE daylight
21 Apr - 17:07:02 10° W 17:10:16 55° N 17:13:30 10° ENE daylight
21 Apr - 18:43:34 10° WNW 18:46:50 75° NNE 18:50:06 10° ESE daylight
21 Apr - 20:20:06 10° W 20:23:02 30° SW 20:25:55 10° SSE daylight
22 Apr - 14:36:41 10° SW 14:39:47 43° SSE 14:42:55 10° ENE daylight
22 Apr - 16:12:52 10° W 16:16:07 63° N 16:19:22 10° ENE daylight
22 Apr - 17:49:27 10° WNW 17:52:42 60° N 17:55:56 10° E daylight
22 Apr - 19:25:53 10° WNW 19:29:03 48° SSW 19:32:12 10° SE daylight
23 Apr - 13:43:01 10° SSW 13:45:48 26° SE 13:48:37 10° E daylight
23 Apr - 15:18:39 10° WSW 15:21:56 80° NNW 15:25:13 10° ENE daylight
23 Apr - 16:55:16 10° WNW 16:58:29 54° N 17:01:42 10° E daylight
23 Apr - 18:31:42 10° WNW 18:34:58 75° SSW 18:38:13 10° ESE daylight
23 Apr - 20:08:42 10° W 20:10:56 17° SW 20:13:06 10° S daylight
24 Apr - 12:49:44 10° S 12:51:48 16° SE 12:53:56 10° E daylight
24 Apr - 14:24:30 10° WSW 14:27:45 72° SSE 14:31:00 10° ENE daylight
24 Apr - 16:01:00 10° W 16:04:12 54° N 16:07:25 10° ENE daylight
24 Apr - 17:37:29 10° WNW 17:40:46 78° NNE 17:44:02 10° ESE daylight
24 Apr - 19:14:04 10° W 19:16:55 28° SW 19:19:44 10° SSE daylight
25 Apr - 13:30:26 10° SW 13:33:33 46° SSE 13:36:42 10° ENE daylight
25 Apr - 15:06:39 10° W 15:09:53 61° N 15:13:08 10° ENE daylight
25 Apr - 16:43:13 10° WNW 16:46:28 61° N 16:49:42 10° E daylight
25 Apr - 18:19:38 10° WNW 18:22:47 45° SSW 18:25:54 10° SE daylight
26 Apr - 12:36:33 10° SSW 12:39:23 28° SE 12:42:15 10° E daylight
26 Apr - 14:12:16 10° WSW 14:15:32 77° NNW 14:18:48 10° ENE daylight
26 Apr - 15:48:52 10° WNW 15:52:05 54° N 15:55:18 10° E daylight
26 Apr - 17:25:17 10° WNW 17:28:32 71° SSW 17:31:47 10° ESE daylight
26 Apr - 19:02:22 10° W 19:04:28 16° SW 19:06:30 10° S daylight
27 Apr - 11:43:02 10° S 11:45:13 17° SE 11:47:29 10° E daylight
27 Apr - 13:17:56 10° WSW 13:21:11 76° SSE 13:24:26 10° ENE daylight
27 Apr - 14:54:26 10° W 14:57:39 53° N 15:00:51 10° ENE daylight
27 Apr - 16:30:54 10° WNW 16:34:10 81° NNE 16:37:26 10° ESE daylight
27 Apr - 18:07:30 10° W 18:10:18 26° SW 18:13:03 10° SSE daylight
28 Apr - 12:23:40 10° SW 12:26:49 49° SSE 12:29:59 10° ENE daylight
28 Apr - 13:59:56 10° W 14:03:09 60° N 14:06:23 10° ENE daylight
28 Apr - 15:36:29 10° WNW 15:39:43 63° N 15:42:58 10° E daylight
28 Apr - 17:12:53 10° WNW 17:16:00 42° SSW 17:19:06 10° SE daylight
29 Apr - 11:29:36 10° SSW 11:32:29 30° SE 11:35:23 10° E daylight
29 Apr - 13:05:23 10° WSW 13:08:38 74° NNW 13:11:54 10° ENE daylight
29 Apr - 14:41:58 10° WNW 14:45:11 54° N 14:48:23 10° E daylight
29 Apr - 16:18:22 10° WNW 16:21:36 68° SSW 16:24:50 10° ESE daylight
29 Apr - 17:55:32 10° WSW 17:57:29 15° SW 17:59:23 10° S daylight
